Location: Aurora Center
(43.5271°N, 98.5894°W)
Time: 17:50:11
(UTC-05:00)

A-11 Canister half - Visible Passes

Search period start: 03 October 2024 00:00
Search period end: 13 October 2024 00:00
Orbit: 1524 x 1684 km, 47.3° (Epoch: 02 October)

Date Brightness Start Highest point End Pass type
(mag) Time Alt. Az. Time Alt. Az. Time Alt. Az.
09 Oct 10.8 06:58:07 10° S 07:05:37 28° SE 07:13:04 10° ENE visible
10 Oct 10.8 06:36:37 10° S 06:43:55 27° SE 06:51:11 10° ENE visible
11 Oct 10.8 06:15:07 10° S 06:22:14 25° SE 06:29:18 10° E visible
12 Oct 10.8 05:53:39 10° S 06:00:33 24° SE 06:07:23 10° E visible
